Weather reports worldwide

Advertisment
Shobdon, United Kingdom (3520): temperature & dewpoint: 19.03.2017 21:00:00 - 25.03.2017 21:00:00 (GMT)Shobdon, United Kingdom (3520): temperature -20cm & temperature -100cm: 19.03.2017 21:00:00 - 25.03.2017 21:00:00 (GMT)Shobdon, United Kingdom (3520): wind speed & gusts: 19.03.2017 21:00:00 - 25.03.2017 21:00:00 (GMT)Shobdon, United Kingdom (3520): wind direction: 19.03.2017 21:00:00 - 25.03.2017 21:00:00 (GMT)Shobdon, United Kingdom (3520): reduced air pressure: 19.03.2017 21:00:00 - 25.03.2017 21:00:00 (GMT)Shobdon, United Kingdom (3520): visibility: 19.03.2017 21:00:00 - 25.03.2017 21:00:00 (GMT)Shobdon, United Kingdom (3520): sunshine duration: 19.03.2017 21:00:00 - 25.03.2017 21:00:00 (GMT)Shobdon, United Kingdom (3520): precipitation: 19.03.2017 21:00:00 - 25.03.2017 21:00:00 (GMT)
Date & Time tt [°C] td [°C] tt -20cm [°C] tt -100cm [°C] ff [km/h] ff [kn] fx [km/h] fx [kn] dd ppp [hPa] vv [km] sd [min] rr [mm]
25.03.2017 21:00:00 9,2 -5,0 - - 9 5 - - ENE 1028,0 35 0 0,0
25.03.2017 20:00:00 10,5 -3,3 - - 15 8 - - NE 1027,7 35 0 0,0
25.03.2017 19:00:00 11,0 -2,6 - - 15 8 - - NE 1027,5 30 12 0,0
25.03.2017 18:00:00 12,6 -4,0 - - 16 9 - - ENE 1027,3 35 60 0,0
25.03.2017 17:00:00 13,7 -4,2 - - 21 11 - - ENE 1027,5 40 60 0,0
25.03.2017 16:00:00 14,0 -3,2 - - 22 12 - - ENE 1028,1 30 60 0,0
25.03.2017 15:00:00 14,0 -0,9 - - 16 9 - - E 1029,0 29 60 0,0
25.03.2017 14:00:00 12,9 -0,2 - - 22 12 - - E 1030,2 27 60 0,0
25.03.2017 13:00:00 12,6 1,9 - - 18 10 - - E 1031,2 25 60 0,0
25.03.2017 12:00:00 12,1 3,1 - - 13 7 - - ENE 1031,8 21 60 0,0
25.03.2017 11:00:00 11,1 4,0 - - 11 6 - - ENE 1032,5 17 60 0,0
25.03.2017 10:00:00 9,4 3,3 - - 9 5 - - E 1033,2 16 60 0,0
25.03.2017 09:00:00 7,8 3,2 8,0 8,4 8 4 - - ENE 1033,6 17 60 0,0
25.03.2017 08:00:00 4,9 3,5 - - 5 3 - - NNE 1034,2 15 60 0,0
25.03.2017 07:00:00 -0,1 -0,3 - - 2 1 - - W 1034,3 7 30 0,0
25.03.2017 06:00:00 -1,2 -1,8 - - 2 1 - - ESE 1033,9 4,9 0 0,0
25.03.2017 05:00:00 -0,5 -1,6 - - 2 1 - - NW 1033,8 8 0 0,0
25.03.2017 04:00:00 2,3 0,5 - - 5 3 - - N 1034,0 13 0 0,0
25.03.2017 03:00:00 2,4 1,2 - - 5 3 - - NNE 1034,4 16 0 0,0
25.03.2017 02:00:00 1,9 0,2 - - 4 2 - - E 1034,7 16 0 0,0
25.03.2017 01:00:00 3,1 1,2 - - 4 2 - - NNE 1034,8 16 0 0,0
25.03.2017 00:00:00 2,8 0,7 - - 4 2 - - NE 1034,9 11 - 0,0
24.03.2017 23:00:00 5,2 3,0 - - 5 3 - - NE 1034,9 15 0 0,0
24.03.2017 22:00:00 6,4 2,9 - - 9 5 - - NE 1034,5 20 0 0,0
24.03.2017 21:00:00 8,1 3,4 - - 11 6 - - ENE 1033,8 23 0 0,0
24.03.2017 20:00:00 8,5 3,6 - - 8 4 - - NE 1033,0 24 0 0,0
24.03.2017 19:00:00 9,6 3,7 - - 8 4 - - NE 1032,3 24 12 0,0
24.03.2017 18:00:00 11,6 4,3 - - 15 8 - - ENE 1031,0 24 60 0,0
24.03.2017 17:00:00 12,8 4,8 - - 15 8 - - ENE 1030,6 24 60 0,0
24.03.2017 16:00:00 12,9 4,9 - - 13 7 - - ENE 1030,8 25 60 0,0
24.03.2017 15:00:00 12,4 5,8 - - 13 7 - - ENE 1031,0 22 60 0,0
24.03.2017 14:00:00 11,0 5,1 - - 16 9 - - E 1031,6 22 54 0,0
24.03.2017 13:00:00 9,4 4,6 - - 18 10 - - ENE 1031,9 18 18 0,0
24.03.2017 12:00:00 8,3 4,3 - - 18 10 - - NE 1031,6 16 0 0,0
24.03.2017 11:00:00 7,1 3,8 - - 18 10 - - ENE 1031,2 14 0 0,0
24.03.2017 10:00:00 6,3 3,6 - - 15 8 - - ENE 1031,1 12 0 0,0
24.03.2017 09:00:00 5,9 3,4 7,9 8,5 13 7 - - NE 1030,8 12 0 0,0
24.03.2017 08:00:00 5,6 3,2 - - 18 10 - - ENE 1030,0 13 0 0,0
24.03.2017 07:00:00 5,3 2,7 - - 16 9 - - ENE 1029,2 13 0 0,0
24.03.2017 06:00:00 5,5 3,0 - - 16 9 - - NE 1028,2 11 0 0,0
24.03.2017 05:00:00 5,5 3,0 - - 16 9 - - ENE 1027,7 11 0 0,0
24.03.2017 04:00:00 5,5 2,9 - - 16 9 - - NE 1027,4 12 0 0,0
24.03.2017 03:00:00 5,6 2,9 - - 16 9 - - NE 1026,9 12 0 0,0
24.03.2017 02:00:00 5,8 2,8 - - 13 7 - - NE 1026,8 12 0 0,0
24.03.2017 01:00:00 5,6 2,4 - - 15 8 - - NE 1026,6 14 0 0,0
24.03.2017 00:00:00 5,3 1,7 - - 16 9 - - NE 1026,5 19 - 0,0
23.03.2017 23:00:00 5,2 1,1 - - 16 9 - - NNE 1025,5 20 0 0,0
23.03.2017 22:00:00 5,9 1,1 - - 16 9 - - NE 1024,7 22 0 0,0
23.03.2017 21:00:00 6,5 0,7 - - 16 9 - - NE 1023,7 22 0 0,0
23.03.2017 20:00:00 7,4 1,0 - - 21 11 - - NE 1022,9 23 0 0,0
23.03.2017 19:00:00 8,1 1,0 - - 18 10 - - NE 1021,8 23 12 0,0
23.03.2017 18:00:00 9,3 2,5 - - 16 9 - - ENE 1020,4 18 60 0,0
23.03.2017 17:00:00 10,8 2,3 - - 26 14 46 25 ENE 1019,4 20 42 0,0
23.03.2017 16:00:00 11,0 3,3 - - 24 13 48 26 ENE 1018,6 18 30 0,0
23.03.2017 15:00:00 11,3 3,2 - - 21 11 - - ENE 1018,1 15 18 -
23.03.2017 14:00:00 10,2 4,6 - - 18 10 - - ENE 1017,9 11 6 0,0
23.03.2017 13:00:00 9,7 4,4 - - 21 11 - - ENE 1017,8 11 30 0,0
23.03.2017 12:00:00 10,3 4,8 - - 24 13 - - ENE 1017,5 12 36 0,0
23.03.2017 11:00:00 8,4 5,4 - - 18 10 - - ENE 1017,6 11 0 0,2
23.03.2017 10:00:00 5,9 4,5 - - 16 9 - - NE 1017,3 7 0 0,0
23.03.2017 09:00:00 4,3 3,6 8,2 8,7 15 8 - - NNE 1016,8 10 0 0,2
23.03.2017 08:00:00 3,4 3,0 - - 13 7 - - NNE 1016,4 5 0 0,4
23.03.2017 07:00:00 2,6 2,4 - - 13 7 - - NNE 1015,7 3,8 0 0,2
23.03.2017 06:00:00 2,0 2,0 - - 13 7 - - NNE 1014,7 6 0 0,0
23.03.2017 05:00:00 -0,9 -0,9 - - 4 2 - - N 1014,0 6 0 0,0
23.03.2017 04:00:00 -1,3 -1,4 - - 5 3 - - NNE 1013,8 3,5 0 0,0
23.03.2017 03:00:00 -2,0 -2,3 - - 2 1 - - NNW 1013,3 3,7 0 0,0
23.03.2017 02:00:00 -1,6 -1,9 - - 2 1 - - NNW 1013,1 3,8 0 0,0
23.03.2017 01:00:00 -1,3 -1,5 - - 2 1 - - NNW 1012,5 4,8 0 0,0
23.03.2017 00:00:00 -0,6 -0,8 - - 2 1 - - NNE 1012,0 0,2 - 0,0
22.03.2017 23:00:00 1,2 1,1 - - 11 6 - - NNW 1011,3 2,5 0 0,0
22.03.2017 22:00:00 -0,5 -1,1 - - 2 1 - - WNW 1010,9 4,0 0 0,0
22.03.2017 21:00:00 1,3 0,9 - - 0 0 - - N 1009,9 4,5 0 0,0
22.03.2017 20:00:00 2,7 2,1 - - 5 3 - - NE 1009,1 6 0 0,0
22.03.2017 19:00:00 4,1 3,4 - - 5 3 - - E 1007,9 16 0 0,0
22.03.2017 18:00:00 5,3 3,6 - - 5 3 - - E 1006,8 30 0 0,0
22.03.2017 17:00:00 5,5 3,0 - - 4 2 - - N 1005,9 20 0 0,0
22.03.2017 16:00:00 5,4 3,6 - - 18 10 - - SW 1005,2 30 0 3,4
22.03.2017 15:00:00 8,2 3,0 - - 4 2 - - SE 1004,0 30 0 0,0
22.03.2017 14:00:00 8,4 3,6 - - 4 2 - - WNW 1003,6 30 30 0,0
22.03.2017 13:00:00 6,7 4,4 - - 2 1 - - W 1003,4 28 0 0,0
22.03.2017 12:00:00 5,7 4,0 - - 4 2 - - W 1003,0 29 0 0,0
22.03.2017 11:00:00 5,2 3,6 - - 2 1 - - NW 1002,4 30 0 0,2
22.03.2017 10:00:00 4,6 3,3 - - 4 2 - - W 1001,9 16 0 0,0
22.03.2017 09:00:00 4,3 3,6 8,7 8,7 2 1 - - N 1001,1 20 0 0,0
22.03.2017 08:00:00 3,7 3,1 - - 4 2 - - SE 1000,7 17 0 0,4
22.03.2017 07:00:00 3,3 2,6 - - 8 4 - - SE 1000,3 14 0 0,4
22.03.2017 06:00:00 3,0 2,0 - - 9 5 - - S 1000,2 14 0 2,2
22.03.2017 05:00:00 3,9 3,2 - - 4 2 - - S 1000,2 8 0 1,4
22.03.2017 04:00:00 3,9 2,7 - - 16 9 - - S 1000,6 10 0 2,8
22.03.2017 03:00:00 5,4 4,1 - - 16 9 - - S 1000,7 9 0 2,0
22.03.2017 02:00:00 4,5 3,5 - - 11 6 - - SE 1001,1 7 0 1,0
22.03.2017 01:00:00 4,6 3,3 - - 18 10 - - S 1002,6 4,7 0 2,8
22.03.2017 00:00:00 4,2 3,2 - - 11 6 - - SE 1003,2 21 - 1,2
21.03.2017 23:00:00 5,1 3,8 - - 15 8 - - SSE 1003,8 24 0 0,4
21.03.2017 22:00:00 4,1 3,7 - - 9 5 - - ESE 1004,9 6 0 0,2
21.03.2017 21:00:00 3,9 3,2 - - 8 4 - - SE 1005,8 20 0 0,6
21.03.2017 20:00:00 3,5 3,0 - - 9 5 - - ESE 1006,4 30 0 0,0
21.03.2017 19:00:00 3,2 1,9 - - 9 5 - - SSW 1007,1 30 0 2,8
21.03.2017 18:00:00 4,4 3,0 - - 9 5 - - SW 1007,4 23 0 0,2
21.03.2017 17:00:00 4,8 3,1 - - 18 10 - - SW 1007,5 30 0 0,2
21.03.2017 16:00:00 4,1 2,6 - - 22 12 - - WSW 1007,9 6 0 1,0
21.03.2017 15:00:00 6,7 1,4 - - 21 11 - - SW 1007,8 30 18 0,0
21.03.2017 14:00:00 6,3 1,0 - - 26 14 - - W 1008,3 35 0 0,0
21.03.2017 13:00:00 7,1 0,2 - - 37 20 46 25 WSW 1008,4 35 42 0,0
21.03.2017 12:00:00 6,3 1,5 - - 28 15 57 31 WSW 1009,1 40 30 0,0
21.03.2017 11:00:00 7,8 -0,3 - - 31 17 55 30 W 1008,5 30 54 0,0
21.03.2017 10:00:00 6,5 0,3 - - 34 18 52 28 W 1008,6 30 54 0,0
21.03.2017 09:00:00 5,7 0,0 9,2 8,7 24 13 - - W 1008,2 30 60 0,0
21.03.2017 08:00:00 3,6 1,0 - - 2 1 - - SSW 1008,2 27 48 0,0
21.03.2017 07:00:00 2,2 0,7 - - 15 8 - - W 1008,0 25 6 0,4
21.03.2017 06:00:00 0,7 -1,1 - - 11 6 - - WSW 1007,7 25 0 0,0
21.03.2017 05:00:00 2,9 -0,6 - - 16 9 - - W 1007,0 28 0 0,0
21.03.2017 04:00:00 3,0 -0,8 - - 15 8 - - W 1006,5 28 0 0,0
21.03.2017 03:00:00 3,9 -0,8 - - 18 10 - - W 1006,1 29 0 0,0
21.03.2017 02:00:00 4,2 -0,5 - - 18 10 - - W 1005,5 30 0 0,0
21.03.2017 01:00:00 4,9 0,6 - - 22 12 - - W 1004,9 35 0 0,0
21.03.2017 00:00:00 5,4 1,6 - - 26 14 - - W 1004,2 35 - 0,0
20.03.2017 23:00:00 5,8 2,3 - - 22 12 - - WSW 1004,0 30 0 0,0
20.03.2017 22:00:00 5,8 3,3 - - 11 6 - - W 1003,7 35 0 0,0
20.03.2017 21:00:00 6,8 4,2 - - 15 8 - - WSW 1003,7 26 0 0,0
20.03.2017 20:00:00 5,4 3,4 - - 8 4 - - W 1003,7 27 0 0,0
20.03.2017 19:00:00 7,3 3,4 - - 16 9 - - WSW 1003,1 30 0 0,0
20.03.2017 18:00:00 8,4 2,6 - - 15 8 - - W 1002,5 30 48 0,0
20.03.2017 17:00:00 9,8 2,5 - - 18 10 - - W 1002,3 30 48 0,0
20.03.2017 16:00:00 10,4 3,8 - - 22 12 - - W 1001,8 30 54 0,0
20.03.2017 15:00:00 10,0 5,1 - - 16 9 - - W 1001,8 30 42 0,0
20.03.2017 14:00:00 9,2 5,5 - - 22 12 - - W 1001,8 40 18 0,2
20.03.2017 13:00:00 8,0 6,2 - - 16 9 - - WSW 1001,6 26 0 0,8
20.03.2017 12:00:00 8,0 6,0 - - 16 9 - - W 1001,1 7 0 1,2
20.03.2017 11:00:00 9,6 7,6 - - 15 8 - - W 1000,4 14 0 1,2
20.03.2017 10:00:00 9,6 8,2 - - 18 10 - - W 1000,0 9 0 1,6
20.03.2017 09:00:00 10,7 9,8 9,2 8,5 24 13 - - SW 999,2 10 0 0,8
20.03.2017 08:00:00 10,5 9,7 - - 22 12 - - SW 999,8 22 0 0,2
20.03.2017 07:00:00 9,9 9,1 - - 13 7 - - SSW 1000,9 24 0 0,4
20.03.2017 06:00:00 9,9 8,9 - - 13 7 - - SW 1001,8 18 0 0,0
20.03.2017 05:00:00 10,0 9,0 - - 15 8 - - WSW 1002,5 27 0 0,0
20.03.2017 04:00:00 10,2 9,4 - - 13 7 - - SSW 1002,8 25 0 0,2
20.03.2017 03:00:00 10,3 9,4 - - 16 9 - - SW 1003,6 13 0 0,2
20.03.2017 02:00:00 10,4 9,1 - - 18 10 - - SW 1004,0 26 0 0,2
20.03.2017 01:00:00 10,7 9,0 - - 16 9 - - WSW 1004,9 27 0 0,0
20.03.2017 00:00:00 10,9 9,2 - - 21 11 - - WSW 1005,8 30 - 0,0
19.03.2017 23:00:00 10,8 9,4 - - 21 11 - - SW 1005,5 25 0 0,0
19.03.2017 22:00:00 10,9 9,3 - - 26 14 - - WSW 1005,7 30 0 0,0
19.03.2017 21:00:00 11,1 9,1 - - 24 13 - - WSW 1005,8 40 0 0,0

tt = temperature
td = dewpoint
tt -20cm = temperature -20cm
tt -100cm = temperature -100cm
ff = wind speed
fx = gusts
dd = wind direction
ppp = reduced air pressure
vv = visibility
sd = sunshine duration
rr = precipitation

Next stations